Regional Weather Roundup
Issued by NWS

Home | Current Version | Previous Version | Graphics & Text | Print | Product List | Glossary On
Versions: 1 2 3 4 5 6 7 8 9 10 11 12 13 14 15 16 17 18 19 20 21 22 23 24 25 26 27 28 29 30 31 32 33 34 35 36 37 38 39 40 41 42 43 44 45 46 47 48 49 50
000
ASUS43 KLMK 192002
RWRKY
KENTUCKY REGIONAL WEATHER ROUNDUP
NATIONAL WEATHER SERVICE LOUISVILLE KY
400 PM EDT WED JUL 19 2017

NOTE "FAIR" INDICATES FEW OR NO CLOUDS BELOW 12,000 FEET
WITH NO SIGNIFICANT WEATHER AND/OR OBSTRUCTIONS TO VISIBILITY.

KYZ001>023-026-027-061>063-070>075-192100-
WESTERN AND SOUTH CENTRAL KENTUCKY

CITY           SKY/WX    TMP DP  RH WIND       PRES   REMARKS
PADUCAH        SUNNY     94  71  47 W6        30.10F HX 101
HENDERSON      SUNNY     93  72  50 SW7       30.10F HX 101
OWENSBORO      CLOUDY    88  71  57 E7        30.11F HX  94
HOPKINSVILLE   SUNNY     91  74  58 W8        30.11F HX 100
BOWLING GREEN  MOSUNNY   92  70  48 NW5       30.11F HX  97
GLASGOW        NOT AVBL
$$

KYZ024-025-028>034-038-045-046-053-192100-
NORTH CENTRAL KENTUCKY

CITY           SKY/WX    TMP DP  RH WIND       PRES   REMARKS
LOUISVILLE/SDF PTSUNNY   95  64  35 N8        30.09F HX  97
LOUISVILLE/LOU MOSUNNY   92  65  40 N10       30.10F HX  94
FORT KNOX      NOT AVBL
$$

KYZ035>037-039>044-047>052-055>060-089>105-192100-
NORTHEAST KENTUCKY

CITY           SKY/WX    TMP DP  RH WIND       PRES   REMARKS
LEXINGTON      SUNNY     89  61  38 W9        30.13F
COVINGTON      MOSUNNY   87  67  51 N6        30.10F HX  90
FRANKFORT      MOSUNNY   88  66  48 VRB6      30.11F HX  90
$$

KYZ054-064>069-076>088-106>120-192100-
SOUTHEAST KENTUCKY

CITY           SKY/WX    TMP DP  RH WIND       PRES   REMARKS
JACKSON        SUNNY     88  66  48 CALM      30.13F HX  90
LONDON         MOSUNNY   90  65  43 NW8       30.13F HX  92
SOMERSET       SUNNY     88  61  40 W8        30.13S
MIDDLESBORO    PTSUNNY   87  67  50 CALM      30.12F HX  90
MONTICELLO     PTCLDY    88  71  57 N12       30.14F HX  94
$$





USA.gov is the U.S. government's official web portal to all federal, state and local government web resources and services.